TimeEST,TemperatureF,Dew PointF,Humidity,Sea Level PressureIn,VisibilityMPH,Wind Direction,Wind SpeedMPH,Gust SpeedMPH,PrecipitationIn,Events,Conditions,WindDirDegrees,DateUTC
12:52 AM,41.0,18.0,40,30.34,10.0,Calm,Calm,-,N/A,,Partly Cloudy,0,2013-02-10 05:52:00
1:52 AM,33.1,25.0,72,30.35,10.0,Calm,Calm,-,N/A,,Overcast,0,2013-02-10 06:52:00
2:52 AM,39.0,19.9,46,30.35,10.0,East,3.5,-,N/A,,Overcast,90,2013-02-10 07:52:00
3:52 AM,39.0,19.0,45,30.36,10.0,ESE,4.6,-,N/A,,Overcast,120,2013-02-10 08:52:00
4:52 AM,39.9,19.0,43,30.36,10.0,ESE,5.8,-,N/A,,Overcast,110,2013-02-10 09:52:00
5:52 AM,39.0,19.0,45,30.37,10.0,East,5.8,-,N/A,,Overcast,100,2013-02-10 10:52:00
6:52 AM,39.9,19.0,43,30.41,10.0,ESE,3.5,-,N/A,,Overcast,120,2013-02-10 11:52:00
7:52 AM,35.1,28.0,76,30.45,10.0,NW,5.8,-,N/A,,Overcast,310,2013-02-10 12:52:00
8:52 AM,41.0,21.0,45,30.43,10.0,ESE,5.8,-,N/A,,Mostly Cloudy,120,2013-02-10 13:52:00
9:52 AM,46.0,21.0,37,30.43,10.0,SSE,9.2,-,N/A,,Mostly Cloudy,150,2013-02-10 14:52:00
10:52 AM,50.0,19.0,29,30.45,10.0,SSE,9.2,-,N/A,,Mostly Cloudy,160,2013-02-10 15:52:00
11:52 AM,52.0,19.9,28,30.42,10.0,SSE,11.5,-,N/A,,Mostly Cloudy,160,2013-02-10 16:52:00
12:52 PM,55.0,19.0,24,30.38,10.0,SE,8.1,-,N/A,,Mostly Cloudy,130,2013-02-10 17:52:00
1:52 PM,54.0,18.0,24,30.34,10.0,SSE,8.1,-,N/A,,Mostly Cloudy,160,2013-02-10 18:52:00
2:52 PM,57.0,21.0,25,30.30,10.0,SE,8.1,-,N/A,,Overcast,140,2013-02-10 19:52:00
3:52 PM,57.0,23.0,27,30.29,10.0,SE,8.1,-,N/A,,Overcast,130,2013-02-10 20:52:00
4:52 PM,57.0,28.0,33,30.27,10.0,SSE,9.2,-,N/A,,Overcast,150,2013-02-10 21:52:00
5:52 PM,55.9,33.1,42,30.25,10.0,SSE,9.2,-,N/A,,Overcast,150,2013-02-10 22:52:00
6:52 PM,55.9,37.0,49,30.24,10.0,SE,10.4,-,N/A,,Overcast,140,2013-02-10 23:52:00
7:52 PM,55.0,39.0,55,30.25,10.0,ESE,8.1,-,N/A,,Overcast,120,2013-02-11 00:52:00
8:52 PM,52.0,44.1,74,30.28,6.0,SE,4.6,-,0.03,Rain,Light Rain,130,2013-02-11 01:52:00
9:28 PM,51.8,44.6,76,30.27,6.0,SE,6.9,-,0.06,Rain,Rain,130,2013-02-11 02:28:00
9:52 PM,48.9,46.0,90,30.26,7.0,SE,4.6,-,0.08,Rain,Light Rain,140,2013-02-11 02:52:00
10:52 PM,48.9,46.0,90,30.22,10.0,SSE,9.2,-,0.01,Rain,Light Rain,150,2013-02-11 03:52:00
11:42 PM,48.2,46.4,93,30.20,9.0,SSE,10.4,-,0.00,,Mostly Cloudy,160,2013-02-11 04:42:00
11:52 PM,48.9,46.9,93,30.19,8.0,SSE,11.5,-,0.00,,Mostly Cloudy,160,2013-02-11 04:52:00